Time,TemperatureF,DewpointF,PressureIn,WindDirection,WindDirectionDegrees,WindSpeedMPH,WindSpeedGustMPH,Humidity,HourlyPrecipIn,Conditions,Clouds,dailyrainin,SoftwareType,DateUTC
2013-02-15 00:00:00,23.5,13.9,29.53,North,0,0.0,0.0,66,0.00,,BKN032,0.00,VWS V14.01,2013-02-15 05:00:00,
2013-02-15 00:04:00,23.7,14.0,29.53,North,0,0.0,0.0,66,0.00,,BKN032,0.00,VWS V14.01,2013-02-15 05:04:00,
2013-02-15 00:09:00,23.9,14.2,29.53,North,0,0.0,0.0,66,0.00,,BKN032,0.00,VWS V14.01,2013-02-15 05:09:00,
2013-02-15 00:14:00,24.3,14.6,29.53,North,0,0.0,0.0,66,0.00,,SCT060,0.00,VWS V14.01,2013-02-15 05:14:00,
2013-02-15 00:19:00,24.3,14.6,29.53,North,0,0.0,0.0,66,0.00,,SCT060,0.00,VWS V14.01,2013-02-15 05:19:00,
2013-02-15 00:24:00,24.1,14.4,29.53,North,0,0.0,0.0,66,0.00,,SCT060,0.00,VWS V14.01,2013-02-15 05:24:00,
2013-02-15 00:29:00,24.1,14.4,29.53,North,0,0.0,0.0,66,0.00,,SCT060,0.00,VWS V14.01,2013-02-15 05:29:00,
2013-02-15 00:34:00,24.3,14.2,29.53,North,0,0.0,0.0,65,0.00,,SCT060,0.00,VWS V14.01,2013-02-15 05:34:00,
2013-02-15 00:39:00,24.4,14.4,29.53,North,0,0.0,0.0,65,0.00,,SCT060,0.00,VWS V14.01,2013-02-15 05:39:00,
2013-02-15 00:45:00,24.6,14.6,29.53,North,0,0.0,0.0,65,0.00,,SCT060,0.00,VWS V14.01,2013-02-15 05:45:00,
2013-02-15 00:50:00,24.6,14.6,29.50,North,0,0.0,0.0,65,0.00,,SCT060,0.00,VWS V14.01,2013-02-15 05:50:00,
2013-02-15 00:55:00,24.8,14.7,29.50,North,0,0.0,0.0,65,0.00,,SCT060,0.00,VWS V14.01,2013-02-15 05:55:00,
2013-02-15 01:00:00,25.0,14.5,29.50,North,0,0.0,0.0,64,0.00,,SCT060,0.00,VWS V14.01,2013-02-15 06:00:00,
2013-02-15 01:05:00,25.0,14.2,29.50,North,0,0.0,0.0,63,0.00,,BKN100,0.00,VWS V14.01,2013-02-15 06:05:00,
2013-02-15 01:10:00,25.2,14.4,29.50,North,0,0.0,0.0,63,0.00,,BKN100,0.00,VWS V14.01,2013-02-15 06:10:00,
2013-02-15 01:15:00,25.2,14.0,29.50,North,0,0.0,0.0,62,0.00,,BKN100,0.00,VWS V14.01,2013-02-15 06:15:00,
2013-02-15 01:20:00,25.2,14.0,29.50,North,0,0.0,0.0,62,0.00,,BKN100,0.00,VWS V14.01,2013-02-15 06:20:00,
2013-02-15 01:26:00,25.2,14.0,29.50,North,0,0.0,0.0,62,0.00,,BKN100,0.00,VWS V14.01,2013-02-15 06:26:00,
2013-02-15 01:31:00,25.3,14.2,29.50,North,0,0.0,0.0,62,0.00,,BKN100,0.00,VWS V14.01,2013-02-15 06:31:00,
2013-02-15 01:36:00,25.3,13.8,29.50,North,0,0.0,0.0,61,0.00,,BKN100,0.00,VWS V14.01,2013-02-15 06:36:00,
2013-02-15 01:41:00,25.2,13.6,29.50,North,0,0.0,0.0,61,0.00,,BKN100,0.00,VWS V14.01,2013-02-15 06:41:00,
2013-02-15 01:46:00,25.0,13.4,29.50,North,0,0.0,0.0,61,0.00,,BKN100,0.00,VWS V14.01,2013-02-15 06:46:00,
2013-02-15 01:51:00,24.8,13.6,29.50,North,0,0.0,0.0,62,0.00,,BKN100,0.00,VWS V14.01,2013-02-15 06:51:00,
2013-02-15 01:56:00,24.8,13.6,29.50,North,0,0.0,0.0,62,0.00,,BKN100,0.00,VWS V14.01,2013-02-15 06:56:00,
2013-02-15 02:01:00,25.0,13.4,29.50,North,0,0.0,0.0,61,0.00,,OVC100,0.00,VWS V14.01,2013-02-15 07:01:00,
2013-02-15 02:06:00,25.2,13.6,29.50,North,0,0.0,0.0,61,0.00,,OVC100,0.00,VWS V14.01,2013-02-15 07:06:00,
2013-02-15 02:11:00,25.2,13.6,29.50,North,0,0.0,0.0,61,0.00,,OVC100,0.00,VWS V14.01,2013-02-15 07:11:00,
2013-02-15 02:16:00,25.2,13.6,29.50,North,0,0.0,0.0,61,0.00,,OVC100,0.00,VWS V14.01,2013-02-15 07:16:00,
2013-02-15 02:21:00,25.3,13.4,29.50,North,0,0.0,0.0,60,0.00,,OVC100,0.00,VWS V14.01,2013-02-15 07:21:00,
2013-02-15 02:26:00,25.2,13.2,29.50,North,0,0.0,0.0,60,0.00,,OVC100,0.00,VWS V14.01,2013-02-15 07:26:00,
2013-02-15 02:31:00,25.2,13.2,29.50,North,0,0.0,0.0,60,0.00,,OVC100,0.00,VWS V14.01,2013-02-15 07:31:00,
2013-02-15 02:37:00,25.0,13.1,29.50,North,0,0.0,0.0,60,0.00,,OVC100,0.00,VWS V14.01,2013-02-15 07:37:00,
2013-02-15 02:42:00,25.0,12.7,29.50,North,357,0.0,0.0,59,0.00,,OVC100,0.00,VWS V14.01,2013-02-15 07:42:00,
2013-02-15 02:47:00,25.0,12.7,29.50,North,357,0.0,0.0,59,0.00,,OVC100,0.00,VWS V14.01,2013-02-15 07:47:00,
2013-02-15 02:52:00,24.8,12.5,29.47,NE,47,0.0,0.0,59,0.00,,OVC100,0.00,VWS V14.01,2013-02-15 07:52:00,
2013-02-15 02:57:00,24.6,12.4,29.47,NE,47,0.0,0.0,59,0.00,,OVC100,0.00,VWS V14.01,2013-02-15 07:57:00,
2013-02-15 03:02:00,24.4,12.2,29.47,NE,47,0.0,0.0,59,0.00,,BKN095,0.00,VWS V14.01,2013-02-15 08:02:00,
2013-02-15 03:07:00,24.4,12.2,29.50,NE,47,0.0,0.0,59,0.00,,BKN095,0.00,VWS V14.01,2013-02-15 08:07:00,
2013-02-15 03:12:00,24.3,12.0,29.50,NE,47,0.0,0.0,59,0.00,,BKN095,0.00,VWS V14.01,2013-02-15 08:12:00,
2013-02-15 03:17:00,24.1,11.8,29.50,NE,47,0.0,0.0,59,0.00,,BKN095,0.00,VWS V14.01,2013-02-15 08:17:00,
2013-02-15 03:22:00,24.1,11.8,29.50,NE,47,0.0,0.0,59,0.00,,BKN095,0.00,VWS V14.01,2013-02-15 08:22:00,
2013-02-15 03:27:00,24.1,11.8,29.50,NE,47,0.0,0.0,59,0.00,,BKN095,0.00,VWS V14.01,2013-02-15 08:27:00,
2013-02-15 03:32:00,24.1,11.8,29.50,NE,47,0.0,0.0,59,0.00,,BKN095,0.00,VWS V14.01,2013-02-15 08:32:00,
2013-02-15 03:37:00,24.1,11.8,29.50,NE,47,0.0,0.0,59,0.00,,BKN095,0.00,VWS V14.01,2013-02-15 08:37:00,
2013-02-15 03:42:00,23.9,11.7,29.50,NE,47,0.0,0.0,59,0.00,,BKN095,0.00,VWS V14.01,2013-02-15 08:42:00,
2013-02-15 03:48:00,23.9,11.7,29.50,NE,47,0.0,0.0,59,0.00,,BKN095,0.00,VWS V14.01,2013-02-15 08:48:00,
2013-02-15 03:53:00,23.9,11.7,29.50,NE,47,0.0,0.0,59,0.00,,BKN095,0.00,VWS V14.01,2013-02-15 08:53:00,
2013-02-15 03:58:00,24.1,12.2,29.50,NE,47,0.0,0.0,60,0.00,,BKN095,0.00,VWS V14.01,2013-02-15 08:58:00,
2013-02-15 04:03:00,24.3,12.4,29.50,NE,47,0.0,0.0,60,0.00,,BKN095,0.00,VWS V14.01,2013-02-15 09:03:00,
2013-02-15 04:08:00,24.4,12.6,29.50,NE,47,0.0,0.0,60,0.00,,BKN095,0.00,VWS V14.01,2013-02-15 09:08:00,
2013-02-15 04:13:00,24.6,12.7,29.50,NE,47,0.0,0.0,60,0.00,,BKN095,0.00,VWS V14.01,2013-02-15 09:13:00,
2013-02-15 04:18:00,24.8,12.9,29.50,NE,47,0.0,0.0,60,0.00,,BKN095,0.00,VWS V14.01,2013-02-15 09:18:00,
2013-02-15 04:23:00,25.2,12.9,29.50,NE,47,0.0,0.0,59,0.00,,SCT095,0.00,VWS V14.01,2013-02-15 09:23:00,
2013-02-15 04:28:00,25.2,12.9,29.50,NE,47,0.0,0.0,59,0.00,,SCT095,0.00,VWS V14.01,2013-02-15 09:28:00,
2013-02-15 04:33:00,25.0,12.7,29.50,NE,47,0.0,0.0,59,0.00,,SCT095,0.00,VWS V14.01,2013-02-15 09:33:00,
2013-02-15 04:38:00,24.4,12.2,29.50,NE,47,0.0,0.0,59,0.00,,SCT095,0.00,VWS V14.01,2013-02-15 09:38:00,
2013-02-15 04:43:00,24.4,12.2,29.50,NE,47,0.0,0.0,59,0.00,,SCT095,0.00,VWS V14.01,2013-02-15 09:43:00,
2013-02-15 04:48:00,24.4,12.2,29.50,NE,47,0.0,0.0,59,0.00,,SCT095,0.00,VWS V14.01,2013-02-15 09:48:00,
2013-02-15 04:53:00,24.6,12.4,29.50,NE,47,0.0,0.0,59,0.00,,SCT095,0.00,VWS V14.01,2013-02-15 09:53:00,
2013-02-15 04:58:00,24.8,12.5,29.50,NE,47,0.0,0.0,59,0.00,,SCT095,0.00,VWS V14.01,2013-02-15 09:58:00,
2013-02-15 05:04:00,25.0,12.7,29.50,NE,47,0.0,0.0,59,0.00,,FEW090,0.00,VWS V14.01,2013-02-15 10:04:00,
2013-02-15 05:09:00,25.0,12.7,29.50,NE,47,0.0,0.0,59,0.00,,FEW090,0.00,VWS V14.01,2013-02-15 10:09:00,
2013-02-15 05:14:00,25.0,12.7,29.50,NE,47,0.0,0.0,59,0.00,,FEW090,0.00,VWS V14.01,2013-02-15 10:14:00,
2013-02-15 05:19:00,24.6,12.7,29.50,NE,47,0.0,0.0,60,0.00,,FEW090,0.00,VWS V14.01,2013-02-15 10:19:00,
2013-02-15 05:24:00,24.4,12.6,29.50,NE,47,0.0,0.0,60,0.00,,FEW090,0.00,VWS V14.01,2013-02-15 10:24:00,
2013-02-15 05:29:00,24.4,12.6,29.50,NE,47,0.0,0.0,60,0.00,,FEW090,0.00,VWS V14.01,2013-02-15 10:29:00,
2013-02-15 05:34:00,24.3,12.8,29.50,NE,47,0.0,0.0,61,0.00,,FEW090,0.00,VWS V14.01,2013-02-15 10:34:00,
2013-02-15 05:39:00,24.3,12.8,29.50,NE,47,0.0,0.0,61,0.00,,FEW090,0.00,VWS V14.01,2013-02-15 10:39:00,
2013-02-15 05:44:00,24.3,12.8,29.50,NE,47,0.0,0.0,61,0.00,,FEW090,0.00,VWS V14.01,2013-02-15 10:44:00,
2013-02-15 05:49:00,24.4,13.3,29.50,NE,47,0.0,0.0,62,0.00,,FEW090,0.00,VWS V14.01,2013-02-15 10:49:00,
2013-02-15 05:54:00,24.4,13.3,29.50,NE,47,0.0,0.0,62,0.00,,FEW090,0.00,VWS V14.01,2013-02-15 10:54:00,
2013-02-15 05:59:00,24.4,13.7,29.50,NE,47,0.0,0.0,63,0.00,,FEW090,0.00,VWS V14.01,2013-02-15 10:59:00,
2013-02-15 06:04:00,24.4,13.7,29.50,NE,47,0.0,0.0,63,0.00,,FEW090,0.00,VWS V14.01,2013-02-15 11:04:00,
2013-02-15 06:09:00,24.3,13.5,29.50,NE,47,0.0,0.0,63,0.00,,FEW090,0.00,VWS V14.01,2013-02-15 11:09:00,
2013-02-15 06:14:00,24.3,13.9,29.50,NE,47,0.0,0.0,64,0.00,,FEW090,0.00,VWS V14.01,2013-02-15 11:14:00,
2013-02-15 06:19:00,24.3,13.9,29.50,NE,47,0.0,0.0,64,0.00,,FEW090,0.00,VWS V14.01,2013-02-15 11:19:00,
2013-02-15 06:24:00,24.3,14.2,29.50,NE,47,0.0,0.0,65,0.00,,FEW090,0.00,VWS V14.01,2013-02-15 11:24:00,
2013-02-15 06:29:00,24.3,14.2,29.50,NE,47,0.0,0.0,65,0.00,,FEW090,0.00,VWS V14.01,2013-02-15 11:29:00,
2013-02-15 06:34:00,24.1,14.4,29.50,NE,47,0.0,0.0,66,0.00,,FEW090,0.00,VWS V14.01,2013-02-15 11:34:00,
2013-02-15 06:40:00,23.9,14.2,29.50,NE,47,0.0,0.0,66,0.00,,FEW090,0.00,VWS V14.01,2013-02-15 11:40:00,
2013-02-15 06:45:00,23.9,14.2,29.50,NE,47,0.0,0.0,66,0.00,,FEW090,0.00,VWS V14.01,2013-02-15 11:45:00,
2013-02-15 06:50:00,23.9,14.2,29.50,NE,47,0.0,0.0,66,0.00,,FEW090,0.00,VWS V14.01,2013-02-15 11:50:00,
2013-02-15 06:55:00,23.9,14.6,29.50,NE,47,0.0,0.0,67,0.00,,FEW090,0.00,VWS V14.01,2013-02-15 11:55:00,
2013-02-15 07:00:00,23.9,14.6,29.50,NE,47,0.0,0.0,67,0.00,,FEW090,0.00,VWS V14.01,2013-02-15 12:00:00,
2013-02-15 07:05:00,23.9,14.6,29.50,NE,47,0.0,0.0,67,0.00,,BKN110,0.00,VWS V14.01,2013-02-15 12:05:00,
2013-02-15 07:10:00,24.3,15.2,29.50,NE,47,0.0,0.0,68,0.00,,BKN110,0.00,VWS V14.01,2013-02-15 12:10:00,
2013-02-15 07:15:00,24.4,15.4,29.50,NE,47,0.0,0.0,68,0.00,,BKN110,0.00,VWS V14.01,2013-02-15 12:15:00,
2013-02-15 07:20:00,24.4,15.7,29.50,NE,47,0.0,0.0,69,0.00,,BKN110,0.00,VWS V14.01,2013-02-15 12:20:00,
2013-02-15 07:25:00,24.4,16.1,29.50,SE,142,0.0,0.0,70,0.00,,BKN110,0.00,VWS V14.01,2013-02-15 12:25:00,
2013-02-15 07:30:00,24.8,16.4,29.50,SE,142,0.0,0.0,70,0.00,,BKN110,0.00,VWS V14.01,2013-02-15 12:30:00,
2013-02-15 07:35:00,25.0,16.6,29.50,SE,142,0.0,0.0,70,0.00,,BKN110,0.00,VWS V14.01,2013-02-15 12:35:00,
2013-02-15 07:40:00,25.0,16.9,29.50,SE,142,0.0,0.0,71,0.00,,BKN110,0.00,VWS V14.01,2013-02-15 12:40:00,
2013-02-15 07:45:00,25.2,17.4,29.50,SE,142,0.0,0.0,72,0.00,,BKN110,0.00,VWS V14.01,2013-02-15 12:45:00,
2013-02-15 07:51:00,25.7,17.9,29.50,SE,142,0.0,0.0,72,0.00,,BKN110,0.00,VWS V14.01,2013-02-15 12:51:00,
2013-02-15 07:56:00,26.2,18.8,29.50,SW,233,0.0,0.0,73,0.00,,BKN110,0.00,VWS V14.01,2013-02-15 12:56:00,
2013-02-15 08:01:00,27.0,19.5,29.50,SW,233,0.0,0.0,73,0.00,,BKN110,0.00,VWS V14.01,2013-02-15 13:01:00,
2013-02-15 08:06:00,28.4,21.5,29.50,SW,233,0.0,0.0,75,0.00,,BKN110,0.00,VWS V14.01,2013-02-15 13:06:00,
2013-02-15 08:11:00,29.5,22.5,29.50,SSE,165,0.0,0.0,75,0.00,,BKN110,0.00,VWS V14.01,2013-02-15 13:11:00,
2013-02-15 08:16:00,30.2,23.2,29.50,South,190,0.0,0.0,75,0.00,,BKN080,0.00,VWS V14.01,2013-02-15 13:16:00,
2013-02-15 08:21:00,30.7,23.8,29.50,SW,225,0.0,0.0,75,0.00,,BKN080,0.00,VWS V14.01,2013-02-15 13:21:00,
2013-02-15 08:26:00,32.4,25.6,29.50,SW,236,5.4,5.4,76,0.00,,BKN080,0.00,VWS V14.01,2013-02-15 13:26:00,
2013-02-15 08:31:00,33.3,26.8,29.50,WSW,255,4.5,4.5,77,0.00,,BKN080,0.00,VWS V14.01,2013-02-15 13:31:00,
2013-02-15 08:36:00,33.8,27.4,29.50,WSW,245,9.8,9.8,77,0.00,,BKN080,0.00,VWS V14.01,2013-02-15 13:36:00,
2013-02-15 08:41:00,34.3,28.2,29.50,WSW,242,8.1,8.1,78,0.00,,BKN080,0.00,VWS V14.01,2013-02-15 13:41:00,
2013-02-15 08:46:00,34.5,28.1,29.50,WSW,248,6.3,6.3,77,0.00,,BKN080,0.00,VWS V14.01,2013-02-15 13:46:00,
2013-02-15 08:51:00,34.5,27.8,29.50,WSW,244,0.0,0.0,76,0.00,,BKN080,0.00,VWS V14.01,2013-02-15 13:51:00,
2013-02-15 08:57:00,34.3,27.2,29.50,WSW,252,0.0,0.0,75,0.00,,BKN080,0.00,VWS V14.01,2013-02-15 13:57:00,
2013-02-15 09:02:00,34.2,26.8,29.50,WSW,250,8.1,8.1,74,0.00,,OVC047,0.00,VWS V14.01,2013-02-15 14:02:00,
2013-02-15 09:07:00,33.8,26.1,29.50,West,261,4.5,4.5,73,0.00,,OVC047,0.00,VWS V14.01,2013-02-15 14:07:00,
2013-02-15 09:12:00,33.6,25.6,29.50,West,260,0.0,0.0,72,0.00,,OVC047,0.00,VWS V14.01,2013-02-15 14:12:00,
2013-02-15 09:17:00,33.4,25.4,29.50,South,190,0.0,0.0,72,0.00,,OVC047,0.00,VWS V14.01,2013-02-15 14:17:00,
2013-02-15 09:22:00,33.3,25.2,29.50,West,265,0.0,0.0,72,0.00,,OVC047,0.00,VWS V14.01,2013-02-15 14:22:00,
2013-02-15 09:27:00,33.4,25.4,29.50,West,264,0.0,0.0,72,0.00,,OVC047,0.00,VWS V14.01,2013-02-15 14:27:00,
2013-02-15 09:32:00,33.6,25.6,29.50,West,264,0.0,0.0,72,0.00,,OVC047,0.00,VWS V14.01,2013-02-15 14:32:00,
2013-02-15 09:37:00,33.6,25.6,29.50,West,264,0.0,0.0,72,0.00,,OVC047,0.00,VWS V14.01,2013-02-15 14:37:00,
2013-02-15 09:42:00,33.8,25.7,29.50,West,264,0.0,0.0,72,0.00,,OVC047,0.00,VWS V14.01,2013-02-15 14:42:00,
2013-02-15 09:47:00,34.3,26.3,29.50,West,263,0.0,0.0,72,0.00,,OVC047,0.00,VWS V14.01,2013-02-15 14:47:00,
2013-02-15 09:52:00,34.7,26.6,29.50,West,263,0.0,0.0,72,0.00,,OVC047,0.00,VWS V14.01,2013-02-15 14:52:00,
2013-02-15 09:57:00,35.1,27.0,29.50,WSW,247,0.0,0.0,72,0.00,,OVC047,0.00,VWS V14.01,2013-02-15 14:57:00,
2013-02-15 10:02:00,35.4,27.3,29.50,WSW,257,0.0,0.0,72,0.00,,OVC055,0.00,VWS V14.01,2013-02-15 15:02:00,
2013-02-15 10:07:00,35.6,27.1,29.50,WSW,255,0.0,0.0,71,0.00,,OVC055,0.00,VWS V14.01,2013-02-15 15:07:00,
2013-02-15 10:12:00,35.8,27.3,29.50,WSW,255,0.0,0.0,71,0.00,,OVC055,0.00,VWS V14.01,2013-02-15 15:12:00,
2013-02-15 10:17:00,36.1,27.3,29.50,WSW,255,0.0,0.0,70,0.00,,OVC055,0.00,VWS V14.01,2013-02-15 15:17:00,
2013-02-15 10:22:00,36.3,27.5,29.50,WSW,255,0.0,0.0,70,0.00,,OVC055,0.00,VWS V14.01,2013-02-15 15:22:00,
2013-02-15 10:27:00,36.7,27.8,29.50,WSW,255,0.0,0.0,70,0.00,,OVC055,0.00,VWS V14.01,2013-02-15 15:27:00,
2013-02-15 10:33:00,37.0,27.8,29.50,SW,216,0.0,0.0,69,0.00,,OVC055,0.00,VWS V14.01,2013-02-15 15:33:00,
2013-02-15 10:38:00,37.4,28.2,29.50,WSW,244,0.0,0.0,69,0.00,,OVC055,0.00,VWS V14.01,2013-02-15 15:38:00,
2013-02-15 10:43:00,37.9,28.7,29.50,WSW,240,5.4,5.4,69,0.00,,OVC055,0.00,VWS V14.01,2013-02-15 15:43:00,
2013-02-15 10:48:00,38.3,28.7,29.50,WSW,238,0.0,0.0,68,0.00,,OVC055,0.00,VWS V14.01,2013-02-15 15:48:00,
2013-02-15 10:53:00,38.8,28.8,29.50,SSW,209,7.2,7.2,67,0.00,,OVC055,0.00,VWS V14.01,2013-02-15 15:53:00,
2013-02-15 10:58:00,39.2,28.4,29.50,SSW,208,5.4,5.4,65,0.00,,OVC055,0.00,VWS V14.01,2013-02-15 15:58:00,
2013-02-15 11:03:00,39.7,29.0,29.50,SSW,205,5.4,5.4,65,0.00,,OVC055,0.00,VWS V14.01,2013-02-15 16:03:00,
2013-02-15 11:08:00,40.3,28.7,29.50,SSE,160,0.0,0.0,63,0.00,,OVC055,0.00,VWS V14.01,2013-02-15 16:08:00,
2013-02-15 11:13:00,40.6,28.3,29.50,SSW,197,6.3,6.3,61,0.00,,BKN080,0.00,VWS V14.01,2013-02-15 16:13:00,
2013-02-15 11:18:00,40.8,27.6,29.50,SW,233,6.3,6.3,59,0.00,,BKN080,0.00,VWS V14.01,2013-02-15 16:18:00,
2013-02-15 11:23:00,41.2,28.0,29.50,SSW,209,8.1,8.1,59,0.00,,BKN080,0.00,VWS V14.01,2013-02-15 16:23:00,
2013-02-15 11:28:00,41.5,27.9,29.50,SW,216,8.1,8.1,58,0.00,,BKN080,0.00,VWS V14.01,2013-02-15 16:28:00,
2013-02-15 11:33:00,41.7,28.0,29.47,SSW,211,8.1,8.1,58,0.00,,BKN080,0.00,VWS V14.01,2013-02-15 16:33:00,
2013-02-15 11:38:00,42.1,28.0,29.47,SSW,212,7.2,7.2,57,0.00,,BKN080,0.00,VWS V14.01,2013-02-15 16:38:00,
2013-02-15 11:44:00,42.4,27.9,29.47,SSE,151,10.7,10.7,56,0.00,,BKN080,0.00,VWS V14.01,2013-02-15 16:44:00,
2013-02-15 11:49:00,42.6,27.6,29.47,SSW,211,8.1,8.3,55,0.00,,BKN080,0.00,VWS V14.01,2013-02-15 16:49:00,
2013-02-15 11:54:00,42.6,27.6,29.47,WSW,244,11.6,11.6,55,0.00,,BKN080,0.00,VWS V14.01,2013-02-15 16:54:00,
2013-02-15 11:59:00,42.6,27.6,29.47,SW,218,10.7,10.7,55,0.00,,BKN080,0.00,VWS V14.01,2013-02-15 16:59:00,
2013-02-15 12:04:00,42.4,27.4,29.47,SSW,203,8.1,8.1,55,0.00,,BKN080,0.00,VWS V14.01,2013-02-15 17:04:00,
2013-02-15 12:09:00,42.6,27.6,29.47,SSW,212,9.8,9.8,55,0.00,,BKN080,0.00,VWS V14.01,2013-02-15 17:09:00,
2013-02-15 12:14:00,42.8,27.3,29.47,South,180,7.2,7.2,54,0.00,,BKN080,0.00,VWS V14.01,2013-02-15 17:14:00,
2013-02-15 12:19:00,42.8,26.9,29.47,ESE,118,21.0,21.0,53,0.00,,BKN080,0.00,VWS V14.01,2013-02-15 17:19:00,
2013-02-15 12:24:00,43.0,26.6,29.47,WSW,258,12.5,12.5,52,0.00,,BKN080,0.00,VWS V14.01,2013-02-15 17:24:00,
2013-02-15 12:29:00,43.2,26.7,29.47,SW,232,8.1,8.1,52,0.00,,BKN080,0.00,VWS V14.01,2013-02-15 17:29:00,
2013-02-15 12:34:00,43.3,26.9,29.44,West,265,9.8,9.8,52,0.00,,BKN080,0.00,VWS V14.01,2013-02-15 17:34:00,
2013-02-15 12:39:00,43.5,27.1,29.44,WSW,255,16.1,16.1,52,0.00,,BKN080,0.00,VWS V14.01,2013-02-15 17:39:00,
2013-02-15 12:45:00,43.7,26.8,29.44,SW,232,11.6,11.6,51,0.00,,BKN080,0.00,VWS V14.01,2013-02-15 17:45:00,
2013-02-15 12:50:00,43.9,26.9,29.44,West,265,8.1,8.7,51,0.00,,BKN080,0.00,VWS V14.01,2013-02-15 17:50:00,
2013-02-15 12:55:00,43.7,26.8,29.44,WSW,242,7.2,7.2,51,0.00,,BKN080,0.00,VWS V14.01,2013-02-15 17:55:00,
2013-02-15 13:00:00,43.5,26.6,29.44,SW,218,7.2,8.3,51,0.00,,BKN080,0.00,VWS V14.01,2013-02-15 18:00:00,
2013-02-15 13:05:00,43.2,26.3,29.44,SSW,199,8.1,8.1,51,0.00,,BKN060,0.00,VWS V14.01,2013-02-15 18:05:00,
2013-02-15 13:10:00,43.0,26.1,29.44,SSW,206,11.6,11.6,51,0.00,,BKN060,0.00,VWS V14.01,2013-02-15 18:10:00,
2013-02-15 13:15:00,42.8,25.9,29.44,WSW,237,8.1,8.1,51,0.00,,BKN060,0.00,VWS V14.01,2013-02-15 18:15:00,
2013-02-15 13:20:00,42.8,26.4,29.44,WSW,245,9.8,9.8,52,0.00,,BKN060,0.00,VWS V14.01,2013-02-15 18:20:00,
2013-02-15 13:25:00,43.2,26.7,29.44,SW,218,10.7,10.7,52,0.00,,BKN060,0.00,VWS V14.01,2013-02-15 18:25:00,
2013-02-15 13:30:00,43.2,26.7,29.44,SW,235,12.5,12.5,52,0.00,,BKN060,0.00,VWS V14.01,2013-02-15 18:30:00,
2013-02-15 13:35:00,43.2,26.7,29.44,SW,228,7.2,7.2,52,0.00,,BKN060,0.00,VWS V14.01,2013-02-15 18:35:00,
2013-02-15 13:40:00,43.5,27.1,29.44,SW,217,9.8,9.8,52,0.00,,BKN060,0.00,VWS V14.01,2013-02-15 18:40:00,
2013-02-15 13:45:00,43.9,26.5,29.44,SSW,207,11.6,11.6,50,0.00,,BKN060,0.00,VWS V14.01,2013-02-15 18:45:00,
2013-02-15 13:51:00,43.9,26.0,29.44,WSW,252,21.0,21.0,49,0.00,,BKN060,0.00,VWS V14.01,2013-02-15 18:51:00,
2013-02-15 13:56:00,43.7,25.8,29.44,WSW,257,20.1,20.1,49,0.00,,BKN060,0.00,VWS V14.01,2013-02-15 18:56:00,
2013-02-15 14:01:00,43.5,26.1,29.44,West,261,16.1,16.1,50,0.00,,BKN060,0.00,VWS V14.01,2013-02-15 19:01:00,
2013-02-15 14:06:00,43.7,25.8,29.44,ESE,116,10.7,10.7,49,0.00,,BKN060,0.00,VWS V14.01,2013-02-15 19:06:00,
2013-02-15 14:11:00,44.1,26.1,29.44,South,173,10.7,10.7,49,0.00,,BKN060,0.00,VWS V14.01,2013-02-15 19:11:00,
2013-02-15 14:16:00,44.2,26.3,29.44,WSW,237,7.2,7.2,49,0.00,,BKN060,0.00,VWS V14.01,2013-02-15 19:16:00,
2013-02-15 14:21:00,44.6,26.1,29.44,WSW,241,11.6,11.6,48,0.00,,CLR,0.00,VWS V14.01,2013-02-15 19:21:00,
2013-02-15 14:26:00,44.2,25.8,29.44,WSW,243,10.7,11.0,48,0.00,,CLR,0.00,VWS V14.01,2013-02-15 19:26:00,
2013-02-15 14:31:00,44.1,26.1,29.44,SSW,200,12.5,12.5,49,0.00,,CLR,0.00,VWS V14.01,2013-02-15 19:31:00,
2013-02-15 14:36:00,43.9,26.5,29.47,SSW,206,8.1,8.1,50,0.00,,CLR,0.00,VWS V14.01,2013-02-15 19:36:00,
2013-02-15 14:41:00,43.9,26.5,29.47,WSW,241,9.8,9.8,50,0.00,,CLR,0.00,VWS V14.01,2013-02-15 19:41:00,
2013-02-15 14:46:00,43.7,26.3,29.47,WSW,242,12.5,12.5,50,0.00,,CLR,0.00,VWS V14.01,2013-02-15 19:46:00,
2013-02-15 14:52:00,43.5,26.6,29.47,SSW,204,16.6,16.6,51,0.00,,CLR,0.00,VWS V14.01,2013-02-15 19:52:00,
2013-02-15 14:57:00,43.5,26.6,29.47,SW,214,8.1,8.1,51,0.00,,CLR,0.00,VWS V14.01,2013-02-15 19:57:00,
2013-02-15 15:02:00,43.5,26.6,29.47,SSW,212,10.7,10.7,51,0.00,,CLR,0.00,VWS V14.01,2013-02-15 20:02:00,
2013-02-15 15:07:00,43.7,26.8,29.47,WSW,245,10.7,10.7,51,0.00,,CLR,0.00,VWS V14.01,2013-02-15 20:07:00,
2013-02-15 15:12:00,43.7,26.8,29.47,SW,226,16.1,16.1,51,0.00,,CLR,0.00,VWS V14.01,2013-02-15 20:12:00,
2013-02-15 15:17:00,43.7,26.8,29.47,West,274,7.2,7.2,51,0.00,,CLR,0.00,VWS V14.01,2013-02-15 20:17:00,
2013-02-15 15:22:00,43.5,26.6,29.47,SSW,204,6.3,6.3,51,0.00,,CLR,0.00,VWS V14.01,2013-02-15 20:22:00,
2013-02-15 15:27:00,43.5,26.6,29.47,WSW,246,11.6,11.6,51,0.00,,CLR,0.00,VWS V14.01,2013-02-15 20:27:00,
2013-02-15 15:32:00,43.2,26.7,29.47,SW,224,11.6,11.6,52,0.00,,CLR,0.00,VWS V14.01,2013-02-15 20:32:00,
2013-02-15 15:37:00,43.0,26.6,29.47,West,275,11.6,11.6,52,0.00,,CLR,0.00,VWS V14.01,2013-02-15 20:37:00,
2013-02-15 15:42:00,42.8,26.4,29.47,WSW,253,12.5,12.5,52,0.00,,CLR,0.00,VWS V14.01,2013-02-15 20:42:00,
2013-02-15 15:47:00,42.6,27.1,29.47,SW,233,10.7,10.7,54,0.00,,CLR,0.00,VWS V14.01,2013-02-15 20:47:00,
2013-02-15 15:52:00,42.4,27.0,29.47,West,276,10.7,10.7,54,0.00,,CLR,0.00,VWS V14.01,2013-02-15 20:52:00,
2013-02-15 15:57:00,42.4,27.4,29.47,SE,137,10.7,10.7,55,0.00,,CLR,0.00,VWS V14.01,2013-02-15 20:57:00,
2013-02-15 16:02:00,42.4,27.4,29.47,SW,229,11.6,11.6,55,0.00,,CLR,0.00,VWS V14.01,2013-02-15 21:02:00,
2013-02-15 16:08:00,42.4,27.4,29.47,SW,215,6.3,6.3,55,0.00,,CLR,0.00,VWS V14.01,2013-02-15 21:08:00,
2013-02-15 16:13:00,42.4,27.4,29.47,SSW,202,0.0,5.4,55,0.00,,CLR,0.00,VWS V14.01,2013-02-15 21:13:00,
2013-02-15 16:18:00,42.3,27.7,29.47,WSW,240,7.2,7.2,56,0.00,,CLR,0.00,VWS V14.01,2013-02-15 21:18:00,
2013-02-15 16:23:00,42.1,28.0,29.47,SW,230,6.3,6.3,57,0.00,,CLR,0.00,VWS V14.01,2013-02-15 21:23:00,
2013-02-15 16:28:00,41.7,28.0,29.47,WSW,240,5.4,5.4,58,0.00,,CLR,0.00,VWS V14.01,2013-02-15 21:28:00,
2013-02-15 16:33:00,41.7,28.5,29.47,SW,229,6.3,6.3,59,0.00,,CLR,0.00,VWS V14.01,2013-02-15 21:33:00,
2013-02-15 16:38:00,41.5,28.3,29.47,SSW,206,6.3,6.3,59,0.00,,CLR,0.00,VWS V14.01,2013-02-15 21:38:00,
2013-02-15 16:43:00,41.5,28.7,29.47,SW,229,6.3,6.3,60,0.00,,CLR,0.00,VWS V14.01,2013-02-15 21:43:00,
2013-02-15 16:48:00,41.4,29.7,29.47,South,176,7.2,7.2,63,0.00,,CLR,0.00,VWS V14.01,2013-02-15 21:48:00,
2013-02-15 16:53:00,41.4,29.7,29.47,WSW,254,7.2,7.2,63,0.00,,CLR,0.00,VWS V14.01,2013-02-15 21:53:00,
2013-02-15 16:59:00,41.0,29.4,29.47,SSW,209,0.0,0.0,63,0.00,,CLR,0.00,VWS V14.01,2013-02-15 21:59:00,
2013-02-15 17:04:00,40.5,29.3,29.47,SW,218,0.0,3.6,64,0.00,,CLR,0.00,VWS V14.01,2013-02-15 22:04:00,
2013-02-15 17:09:00,40.3,29.1,29.47,SW,218,0.0,0.0,64,0.00,,CLR,0.00,VWS V14.01,2013-02-15 22:09:00,
2013-02-15 17:14:00,39.9,29.1,29.47,WSW,239,0.0,0.0,65,0.00,,CLR,0.00,VWS V14.01,2013-02-15 22:14:00,
2013-02-15 17:19:00,39.7,29.3,29.47,SW,220,8.1,8.1,66,0.00,,CLR,0.00,VWS V14.01,2013-02-15 22:19:00,
2013-02-15 17:24:00,39.7,30.1,29.47,SSW,209,5.4,5.4,68,0.00,,CLR,0.00,VWS V14.01,2013-02-15 22:24:00,
2013-02-15 17:29:00,39.6,30.2,29.47,SSW,212,0.0,0.0,69,0.00,,CLR,0.00,VWS V14.01,2013-02-15 22:29:00,
2013-02-15 17:34:00,39.4,30.1,29.47,SW,227,0.0,0.0,69,0.00,,CLR,0.00,VWS V14.01,2013-02-15 22:34:00,
2013-02-15 17:39:00,39.2,29.9,29.47,South,189,0.0,0.0,69,0.00,,CLR,0.00,VWS V14.01,2013-02-15 22:39:00,
2013-02-15 17:44:00,38.8,29.5,29.47,SSW,199,0.0,0.0,69,0.00,,CLR,0.00,VWS V14.01,2013-02-15 22:44:00,
2013-02-15 17:49:00,38.7,29.7,29.47,SW,229,0.0,0.0,70,0.00,,CLR,0.00,VWS V14.01,2013-02-15 22:49:00,
2013-02-15 17:54:00,38.7,30.1,29.47,SW,218,0.0,0.0,71,0.00,,CLR,0.00,VWS V14.01,2013-02-15 22:54:00,
2013-02-15 18:00:00,38.5,30.2,29.47,SW,230,0.0,0.0,72,0.00,,CLR,0.00,VWS V14.01,2013-02-15 23:00:00,
2013-02-15 18:05:00,38.5,30.6,29.47,SW,219,0.0,0.0,73,0.00,,CLR,0.00,VWS V14.01,2013-02-15 23:05:00,
2013-02-15 18:10:00,38.5,30.9,29.47,SSW,210,0.0,0.0,74,0.00,,CLR,0.00,VWS V14.01,2013-02-15 23:10:00,
2013-02-15 18:15:00,38.3,30.8,29.47,SSW,210,0.0,0.0,74,0.00,,CLR,0.00,VWS V14.01,2013-02-15 23:15:00,
2013-02-15 18:20:00,38.1,30.9,29.47,SSW,210,0.0,0.0,75,0.00,,CLR,0.00,VWS V14.01,2013-02-15 23:20:00,
2013-02-15 18:25:00,38.1,30.9,29.47,SW,236,0.0,0.0,75,0.00,,CLR,0.00,VWS V14.01,2013-02-15 23:25:00,
2013-02-15 18:30:00,37.9,31.1,29.47,SW,233,0.0,0.0,76,0.00,,CLR,0.00,VWS V14.01,2013-02-15 23:30:00,
2013-02-15 18:35:00,38.1,31.2,29.47,South,180,0.0,0.0,76,0.00,,CLR,0.00,VWS V14.01,2013-02-15 23:35:00,
2013-02-15 18:40:00,37.9,31.1,29.47,South,190,0.0,0.0,76,0.00,,CLR,0.00,VWS V14.01,2013-02-15 23:40:00,
2013-02-15 18:46:00,37.9,31.4,29.47,South,190,0.0,0.0,77,0.00,,CLR,0.00,VWS V14.01,2013-02-15 23:46:00,
2013-02-15 18:51:00,37.9,31.4,29.47,SSE,154,0.0,0.0,77,0.00,,CLR,0.00,VWS V14.01,2013-02-15 23:51:00,
2013-02-15 18:56:00,37.8,31.2,29.47,SSE,156,0.0,0.0,77,0.00,,CLR,0.00,VWS V14.01,2013-02-15 23:56:00,
2013-02-15 19:01:00,37.4,30.9,29.47,SSE,156,0.0,0.0,77,0.00,,CLR,0.00,VWS V14.01,2013-02-16 00:01:00,
2013-02-15 19:06:00,37.2,30.7,29.47,SSE,156,0.0,0.0,77,0.00,,,0.00,VWS V14.01,2013-02-16 00:06:00,
2013-02-15 19:11:00,36.9,30.3,29.47,SSE,156,0.0,0.0,77,0.00,,,0.00,VWS V14.01,2013-02-16 00:11:00,
2013-02-15 19:16:00,36.9,30.3,29.47,SSE,157,0.0,0.0,77,0.00,,,0.00,VWS V14.01,2013-02-16 00:16:00,
2013-02-15 19:21:00,36.7,30.5,29.47,SSE,157,0.0,0.0,78,0.00,,,0.00,VWS V14.01,2013-02-16 00:21:00,
2013-02-15 19:26:00,36.5,30.0,29.47,SSE,157,0.0,0.0,77,0.00,,,0.00,VWS V14.01,2013-02-16 00:26:00,
2013-02-15 19:31:00,36.0,29.5,29.47,SSE,157,0.0,0.0,77,0.00,,,0.00,VWS V14.01,2013-02-16 00:31:00,
2013-02-15 19:36:00,35.6,29.1,29.47,SSE,157,0.0,0.0,77,0.00,,,0.00,VWS V14.01,2013-02-16 00:36:00,
2013-02-15 19:41:00,35.4,29.2,29.47,SSE,157,0.0,0.0,78,0.00,,,0.00,VWS V14.01,2013-02-16 00:41:00,
2013-02-15 19:46:00,35.6,29.4,29.47,SSE,157,0.0,0.0,78,0.00,,,0.00,VWS V14.01,2013-02-16 00:46:00,
2013-02-15 19:51:00,35.4,29.2,29.47,SSE,157,0.0,0.0,78,0.00,,,0.00,VWS V14.01,2013-02-16 00:51:00,
2013-02-15 19:56:00,35.4,29.6,29.47,SSE,157,0.0,0.0,79,0.00,,,0.00,VWS V14.01,2013-02-16 00:56:00,
2013-02-15 20:01:00,35.4,29.6,29.47,SSE,157,0.0,0.0,79,0.00,,,0.00,VWS V14.01,2013-02-16 01:01:00,
2013-02-15 20:06:00,35.1,29.2,29.47,SSE,157,0.0,0.0,79,0.00,,,0.00,VWS V14.01,2013-02-16 01:06:00,
2013-02-15 20:12:00,34.9,29.0,29.47,SSE,157,0.0,0.0,79,0.00,,,0.00,VWS V14.01,2013-02-16 01:12:00,
2013-02-15 20:17:00,34.9,29.0,29.47,SSE,157,0.0,0.0,79,0.00,,,0.00,VWS V14.01,2013-02-16 01:17:00,
2013-02-15 20:22:00,34.5,28.7,29.47,SSE,157,0.0,0.0,79,0.00,,,0.00,VWS V14.01,2013-02-16 01:22:00,
2013-02-15 20:27:00,34.5,29.0,29.47,SSE,157,0.0,0.0,80,0.00,,,0.00,VWS V14.01,2013-02-16 01:27:00,
2013-02-15 20:32:00,34.3,28.8,29.47,SSE,157,0.0,0.0,80,0.00,,,0.00,VWS V14.01,2013-02-16 01:32:00,
2013-02-15 20:37:00,34.3,28.8,29.47,SSE,157,0.0,0.0,80,0.00,,,0.00,VWS V14.01,2013-02-16 01:37:00,
2013-02-15 20:42:00,34.0,28.5,29.47,SSE,157,0.0,0.0,80,0.00,,,0.00,VWS V14.01,2013-02-16 01:42:00,
2013-02-15 20:47:00,33.4,27.9,29.47,SSE,157,0.0,0.0,80,0.00,,,0.00,VWS V14.01,2013-02-16 01:47:00,
2013-02-15 20:52:00,32.9,27.4,29.47,SSE,157,0.0,0.0,80,0.00,,,0.00,VWS V14.01,2013-02-16 01:52:00,
2013-02-15 20:57:00,32.5,27.4,29.47,SSE,157,0.0,0.0,81,0.00,,,0.00,VWS V14.01,2013-02-16 01:57:00,
2013-02-15 21:02:00,32.2,27.0,29.47,SSE,157,0.0,0.0,81,0.00,,,0.00,VWS V14.01,2013-02-16 02:02:00,
2013-02-15 21:08:00,32.0,27.1,29.47,SSE,157,0.0,0.0,82,0.00,,,0.00,VWS V14.01,2013-02-16 02:08:00,
2013-02-15 21:13:00,32.0,27.1,29.47,SSE,157,0.0,0.0,82,0.00,,,0.00,VWS V14.01,2013-02-16 02:13:00,
2013-02-15 21:18:00,32.0,27.4,29.47,SSE,157,0.0,0.0,83,0.00,,,0.00,VWS V14.01,2013-02-16 02:18:00,
2013-02-15 21:23:00,32.2,27.9,29.47,SSE,157,0.0,0.0,84,0.00,,,0.00,VWS V14.01,2013-02-16 02:23:00,
2013-02-15 21:28:00,32.2,27.9,29.47,SSE,157,0.0,0.0,84,0.00,,,0.00,VWS V14.01,2013-02-16 02:28:00,
2013-02-15 21:33:00,32.2,28.2,29.47,SSE,157,0.0,0.0,85,0.00,,,0.00,VWS V14.01,2013-02-16 02:33:00,
2013-02-15 21:38:00,32.0,28.0,29.47,SSE,157,0.0,0.0,85,0.00,,,0.00,VWS V14.01,2013-02-16 02:38:00,
2013-02-15 21:43:00,32.0,28.0,29.47,SSE,157,0.0,0.0,85,0.00,,,0.00,VWS V14.01,2013-02-16 02:43:00,
2013-02-15 21:48:00,32.0,28.3,29.47,SSE,157,0.0,0.0,86,0.00,,,0.00,VWS V14.01,2013-02-16 02:48:00,
2013-02-15 21:53:00,31.6,27.9,29.47,SSE,157,0.0,0.0,86,0.00,,,0.00,VWS V14.01,2013-02-16 02:53:00,
2013-02-15 21:58:00,31.1,27.4,29.47,SSE,157,0.0,0.0,86,0.00,,,0.00,VWS V14.01,2013-02-16 02:58:00,
2013-02-15 22:03:00,30.9,27.2,29.47,SSE,157,0.0,0.0,86,0.00,,,0.00,VWS V14.01,2013-02-16 03:03:00,
2013-02-15 22:08:00,30.4,26.7,29.47,SSE,157,0.0,0.0,86,0.00,,,0.00,VWS V14.01,2013-02-16 03:08:00,
2013-02-15 22:14:00,30.2,26.8,29.47,SSE,157,0.0,0.0,87,0.00,,,0.00,VWS V14.01,2013-02-16 03:14:00,
2013-02-15 22:19:00,30.2,26.8,29.47,SSE,157,0.0,0.0,87,0.00,,,0.00,VWS V14.01,2013-02-16 03:19:00,
2013-02-15 22:24:00,30.2,27.1,29.47,SSE,157,0.0,0.0,88,0.00,,,0.00,VWS V14.01,2013-02-16 03:24:00,
2013-02-15 22:29:00,30.9,27.8,29.47,SSE,157,0.0,0.0,88,0.00,,,0.00,VWS V14.01,2013-02-16 03:29:00,
2013-02-15 22:34:00,32.0,29.1,29.47,SSE,157,0.0,0.0,89,0.00,,,0.00,VWS V14.01,2013-02-16 03:34:00,
2013-02-15 22:39:00,32.5,29.7,29.47,SSE,157,0.0,0.0,89,0.00,,,0.00,VWS V14.01,2013-02-16 03:39:00,
2013-02-15 22:44:00,32.5,29.7,29.47,SSE,157,0.0,0.0,89,0.00,,,0.00,VWS V14.01,2013-02-16 03:44:00,
2013-02-15 22:49:00,32.4,29.2,29.47,SSE,157,0.0,0.0,88,0.00,,,0.00,VWS V14.01,2013-02-16 03:49:00,
2013-02-15 22:54:00,32.0,28.9,29.47,SSE,157,0.0,0.0,88,0.00,,,0.00,VWS V14.01,2013-02-16 03:54:00,
2013-02-15 22:59:00,31.8,28.7,29.47,SSE,157,0.0,0.0,88,0.00,,,0.00,VWS V14.01,2013-02-16 03:59:00,
2013-02-15 23:04:00,31.5,28.6,29.47,SSE,157,0.0,0.0,89,0.00,,,0.00,VWS V14.01,2013-02-16 04:04:00,
2013-02-15 23:10:00,31.5,28.6,29.47,SSE,157,0.0,0.0,89,0.00,,,0.00,VWS V14.01,2013-02-16 04:10:00,
2013-02-15 23:15:00,31.3,28.4,29.47,SSE,157,0.0,0.0,89,0.00,,,0.00,VWS V14.01,2013-02-16 04:15:00,
2013-02-15 23:20:00,31.1,28.2,29.47,SSE,157,0.0,0.0,89,0.00,,,0.00,VWS V14.01,2013-02-16 04:20:00,
2013-02-15 23:25:00,30.9,28.1,29.47,SSE,157,0.0,0.0,89,0.00,,,0.00,VWS V14.01,2013-02-16 04:25:00,
2013-02-15 23:30:00,30.7,27.9,29.47,SSE,157,0.0,0.0,89,0.00,,,0.00,VWS V14.01,2013-02-16 04:30:00,
2013-02-15 23:35:00,30.7,27.9,29.47,SSE,157,0.0,0.0,89,0.00,,,0.00,VWS V14.01,2013-02-16 04:35:00,
2013-02-15 23:40:00,31.1,28.5,29.47,SSE,157,0.0,0.0,90,0.00,,,0.00,VWS V14.01,2013-02-16 04:40:00,
2013-02-15 23:45:00,31.3,28.7,29.47,SSE,157,0.0,0.0,90,0.00,,,0.00,VWS V14.01,2013-02-16 04:45:00,
2013-02-15 23:50:00,31.5,28.9,29.47,SSE,157,0.0,0.0,90,0.00,,,0.00,VWS V14.01,2013-02-16 04:50:00,
2013-02-15 23:55:00,31.5,28.9,29.47,SSE,157,0.0,0.0,90,0.00,,,0.00,VWS V14.01,2013-02-16 04:55:00,